Windsor, Ontario

8:13 PM EDT on July 23, 2017 (GMT -0400)
Windsor

Weather History for CYQG - October, 2012

Change the Weather History Date:

Friday, October 12, 2012

  Actual Average Record
Temperature  
Mean Temperature 44 °F -  
Max Temperature 50 °F 55 °F 80 °F (2008)
Min Temperature 37 °F 39 °F 33 °F (2014)
Degree Days  
Heating Degree Days 21    
Moisture  
Dew Point 33 °F    
Average Humidity 63    
Maximum Humidity 81    
Minimum Humidity 29    
Precipitation  
Precipitation 0.00 in 0.09 in - ()
Sea Level Pressure  
Sea Level Pressure 30.36 in    
Wind  
Wind Speed 9 mph ()    
Max Wind Speed 14 mph    
Max Gust Speed 20 mph    
Visibility 15.0 miles    
Events Rain    
Averages and records for this station are not official NWS values.
T = Trace of Precipitation, MM = Missing Value Source: Averaged Metar Reports

Daily Weather History Graph

Daily Weather History Graph

Search for Another Location

Airport or City:

Trip Planner

Search our weather history database for the weather conditions in past years. The results will help you decide how hot, cold, wet, or windy it might be!

Date:

Astronomy

Oct. 12, 2012 Rise Set
Actual Time 7:41 AM EDT 6:54 PM EDT
Civil Twilight 7:13 AM EDT 7:22 PM EDT
Nautical Twilight 6:41 AM EDT 7:54 PM EDT
Astronomical Twilight 6:08 AM EDT 8:27 PM EDT
Moon 4:20 AM EDT (10/12) 5:05 PM EDT (10/12)
Length of Visible Light 12h 08m
Length of Day
11h 12m
Waning Crescent, 11% of the Moon is Illuminated
Oct 12
Waning Crescent
Oct 15
New
Oct 21
First Quarter
Oct 29
Full
Nov 6
Last Quarter

Hourly Weather History & Observations

Time (EDT) Temp. Windchill Dew Point Humidity Pressure Visibility Wind Dir Wind Speed Gust Speed Precip Events Conditions
12:00 AM 48.2 °F - 39.2 °F 71% 30.17 in 15.0 mi North 13.8 mph - N/A   Overcast
1:00 AM 46.4 °F 40.4 °F 33.8 °F 62% 30.21 in 15.0 mi NNW 13.8 mph - N/A   Overcast
1:52 AM - - - N/A% - 15.0 mi NNW 12.7 mph 19.6 mph N/A Rain Light Rain Showers
2:00 AM 43 °F - 35 °F 63% 30.23 in 15 mi NNW 12.7 mph - - Rain Light Rain Showers
2:00 AM 42.8 °F 37.0 °F 33.8 °F 70% 30.23 in 15.0 mi NNW 10.4 mph - N/A Rain Light Rain Showers
3:00 AM 42.8 °F 38.0 °F 37.4 °F 81% 30.23 in 15.0 mi WNW 8.1 mph - N/A Rain Light Rain Showers
3:40 AM - - - N/A% - 15.0 mi WNW 8.1 mph - N/A   Overcast
4:00 AM 42.8 °F 38.0 °F 35.6 °F 76% 30.24 in 15.0 mi WNW 8.1 mph - N/A   Overcast
5:00 AM 42.8 °F 36.6 °F 35.6 °F 76% 30.26 in 15.0 mi NW 11.5 mph - N/A   Mostly Cloudy
6:00 AM 41.0 °F 34.3 °F 35.6 °F 81% 30.29 in 15.0 mi NW 11.5 mph - N/A   Scattered Clouds
7:00 AM 41.0 °F 36.4 °F 33.8 °F 76% 30.32 in 15.0 mi NNW 6.9 mph - N/A   Partly Cloudy
8:00 AM 39 °F - 33 °F 70% 30.36 in 15 mi NNW 8.1 mph - -   Partly Cloudy
8:00 AM 39.2 °F 33.0 °F 32.0 °F 75% 30.36 in 15.0 mi NNW 9.2 mph - N/A   Partly Cloudy
9:00 AM 41.0 °F 33.9 °F 33.8 °F 76% 30.39 in 15.0 mi NNW 12.7 mph 19.6 mph N/A   Partly Cloudy
10:00 AM 42.8 °F 36.2 °F 33.8 °F 70% 30.42 in 15.0 mi NNW 12.7 mph - N/A   Mostly Cloudy
11:00 AM 44.6 °F 40.2 °F 33.8 °F 66% 30.43 in 15.0 mi North 8.1 mph - N/A   Mostly Cloudy
12:00 PM 48.2 °F - 33.8 °F 58% 30.45 in 15.0 mi North 11.5 mph - N/A   Mostly Cloudy
1:00 PM 48.2 °F - 33.8 °F 58% 30.45 in 15.0 mi NE 13.8 mph - N/A   Mostly Cloudy
2:00 PM 50 °F - 28 °F 29% 30.44 in 15 mi NE 10.4 mph - -   Partly Cloudy
2:00 PM 50.0 °F - 28.4 °F 43% 30.44 in 15.0 mi ENE 9.2 mph - N/A   Mostly Cloudy
3:00 PM 50.0 °F - 33.8 °F 54% 30.43 in 15.0 mi NNE 5.8 mph - N/A   Scattered Clouds
4:00 PM 50.0 °F - 32.0 °F 50% 30.43 in 15.0 mi ENE 6.9 mph - N/A   Partly Cloudy
5:00 PM 50.0 °F - 30.2 °F 47% 30.43 in 15.0 mi East 4.6 mph - N/A   Partly Cloudy
6:00 PM 50.0 °F - 28.4 °F 43% 30.43 in 15.0 mi ESE 3.5 mph - N/A   Partly Cloudy
8:00 PM 44.6 °F 43.1 °F 28.4 °F 53% 30.41 in 15.0 mi East 3.5 mph - N/A   Clear
9:00 PM 39.2 °F 35.9 °F 28.4 °F 65% 30.43 in 15.0 mi SE 4.6 mph - N/A   Clear
10:00 PM 39.2 °F - 28.4 °F 65% 30.43 in 15.0 mi Calm Calm - N/A   Clear
11:00 PM 37.4 °F - 28.4 °F 70% 30.43 in 15.0 mi East 2.3 mph - N/A   Clear